NOAA 16 DEB, 41419

Orbit data source: Space-Track

NOAA 16 DEB, 41419 is space debris in SSO originally from a launch on Thu, 21 Sep 2000 UTC launched from the Air Force Western Test Range (AFWTR). Debris objects in space refer to the collection of defunct objects orbiting the Earth. Examples of debris include non-operational satellites, rocket bodies, and fragments generated from explosions, collisions, or faulty payload assembly.

Loading next visibility...
Identifier
41419, 2000-055KY
Orbit
SSO
Country
Flag of USUS
Related business
Manufacturer
Unknown
Mission
Spacecraft
Bus & Motor
Unknown
Mass
Unknown
Launch date (UTC)
2000-09-21 (25 years ago)
Launch vehicle
Unknown
Launch site
Air Force Western Test Range (AFWTR)
Object type
Payload
Rocket body
Debris
Shape & HBR
Unknown shape, 0.1 m
Radar Cross Section
Small (<0.1 m²)

Expand to show TLE details & history
Last TLE update: 7 hours ago

TLE from 7 hours ago
0 NOAA 16 DEB
1 41419U 00055KY  25342.78820861  .00040590  00000-0  82233-2 0  9993
2 41419  98.8516 103.1910 0013655 276.5323  83.4321 14.61019027506914
Epoch: 2025-12-08T18:55Z
TLE epoch observation values (Epoch: 2025-12-08T18:55:01.223Z)
Latitude
-0.00004°
Longitude
101.65369°
Altitude
691.76 km
Speed
7.511 km/s
True Right ascension
06h 52m 45s
True Declination
0° 00' 00"
Sunlit
Object was in full shadow at epoch
Visualization orbit readout
Latitude
Unknown
Longitude
Unknown
Altitude
Unknown
Speed
Unknown
Apparent Right ascension
Unknown
Apparent Declination
Unknown
Sunlit
N/A
Visualization observer readout
Local Sidereal Time
00:22:42
Azimuth
Unknown
Elevation
Unknown
Doppler factor
Unknown
Orbital elements
Apogee altitude
696.644 km
Perigee altitude
677.349 km
Semi-major axis
7,065.134 km
Eccentricity
0.00137
Inclination
98.8516°
RAAN
103.191°
Arg. of periapsis
276.5323°
True anomaly
83.58758°
Mean anomaly
83.4321°
Eccentric anomaly
83.50984°
Mean motion
3.65479 °/min
Orbital period
98.5 mins
BSTAR
0.0082233
Loading maneuver chart data...
Computing Atmospheric mass density...
Loading historical data...
Loading historical data...
Loading historical data...
Loading historical data...
Loading historical data...
Loading historical data...
Loading historical data...

Documentation

Showing up to 5 results
|